CW2927 Weather Reports


Display with metric or nautical units.
time (UTC)temp
F
wind
direction
speed
MPH
gust
MPH
rain 1hr
in
rain 24hr
in
rain mn
in
humidity
%
barometer
mb
20260904002705 66 45 2.0 3.0 0.01 0.24 0.11 94 1008.6
20260904002205 66 37 3.0 3.0 0.01 0.24 0.11 94 1008.7
20260904000705 66 319 0.0 0.0 0.01 0.24 0.11 93 1008.3
20260904000205 66 319 0.0 1.0 0.01 0.24 0.11 93 1008.3
20260903234705 67 319 0.0 1.0 0.00 0.23 0.10 92 1008.1
20260903234205 67 319 0.0 1.0 0.00 0.23 0.10 92 1008.2
20260903232705 68 319 0.0 0.0 0.00 0.23 0.10 91 1008.0
20260903232205 68 319 0.0 1.0 0.01 0.23 0.10 91 1008.0
20260903230704 68 319 1.0 1.0 0.02 0.23 0.10 90 1008.2
20260903230204 69 319 0.0 1.0 0.02 0.23 0.10 90 1008.3
20260903224204 69 319 0.0 3.0 0.02 0.23 0.10 88 1008.5
20260903222205 70 339 2.0 13.0 0.02 0.22 0.09 85 1008.6
20260903220705 73 191 1.0 3.0 0.00 0.20 0.08 81 1008.2
20260903220204 74 170 2.0 3.0 0.00 0.20 0.08 82 1008.2
20260903214705 74 288 1.0 3.0 0.00 0.20 0.08 82 1008.0
20260903212705 75 258 2.0 3.0 0.00 0.20 0.08 76 1008.0
20260903212204 75 255 2.0 3.0 0.00 0.20 0.08 75 1008.0
20260903210205 76 250 1.0 5.0 0.00 0.20 0.08 75 1007.9
20260903204705 77 233 2.0 5.0 0.00 0.20 0.08 70 1008.0
20260903204205 78 170 1.0 7.0 0.00 0.20 0.08 70 1008.2
20260903200705 78 267 3.0 7.0 0.00 0.20 0.08 69 1008.2
20260903194204 78 271 3.0 7.0 0.00 0.20 0.08 71 1008.3
20260903192705 78 252 5.0 10.0 0.00 0.20 0.08 70 1008.4
20260903192204 78 255 4.0 7.0 0.00 0.20 0.08 71 1008.4
20260903190705 78 255 3.0 8.0 0.00 0.20 0.08 70 1008.4
20260903190205 78 167 1.0 7.0 0.00 0.20 0.08 73 1008.4
20260903184704 78 183 2.0 3.0 0.00 0.20 0.08 70 1008.6
20260903184205 79 195 2.0 7.0 0.00 0.20 0.08 70 1008.6
20260903182704 78 174 2.0 6.0 0.00 0.20 0.08 69 1008.6
20260903182206 78 244 1.0 6.0 0.00 0.20 0.08 70 1008.5
20260903180704 77 232 1.0 3.0 0.00 0.20 0.08 72 1008.8
20260903180205 77 238 1.0 6.0 0.00 0.20 0.08 72 1008.8
20260903174704 77 258 2.0 5.0 0.00 0.20 0.08 73 1008.9
20260903172705 75 211 1.0 3.0 0.00 0.20 0.08 76 1009.1
20260903172205 75 225 2.0 6.0 0.00 0.20 0.08 76 1009.2
20260903170704 76 155 4.0 9.0 0.00 0.20 0.08 76 1009.2
20260903170204 76 156 3.0 6.0 0.00 0.20 0.08 76 1009.2
20260903164705 75 164 3.0 8.0 0.00 0.20 0.08 78 1009.4
20260903164204 75 154 2.0 9.0 0.00 0.20 0.08 80 1009.4
20260903162705 73 167 4.0 7.0 0.00 0.20 0.08 83 1009.6
20260903162204 72 164 5.0 10.0 0.00 0.20 0.08 84 1009.7
20260903160705 72 263 2.0 6.0 0.00 0.20 0.08 84 1009.8
20260903160204 72 167 2.0 8.0 0.00 0.20 0.08 84 1009.8
20260903154704 71 170 4.0 9.0 0.00 0.20 0.08 87 1010.0
20260903152204 69 171 2.0 7.0 0.00 0.20 0.08 90 1010.2
20260903150704 68 188 2.0 6.0 0.00 0.20 0.08 90 1010.3
20260903150204 68 171 2.0 8.0 0.00 0.20 0.08 90 1010.3
20260903144704 68 164 2.0 8.0 0.00 0.20 0.08 90 1010.3
20260903144204 68 197 2.0 7.0 0.00 0.20 0.08 91 1010.2
20260903142704 67 187 2.0 5.0 0.00 0.20 0.08 91 1010.3
20260903142204 67 215 3.0 8.0 0.00 0.20 0.08 91 1010.3
20260903140704 67 211 3.0 10.0 0.00 0.20 0.08 92 1010.2
20260903140204 67 171 2.0 9.0 0.00 0.20 0.08 92 1010.3
20260903134204 66 210 1.0 7.0 0.00 0.20 0.08 93 1010.2
20260903132704 66 175 2.0 7.0 0.00 0.20 0.08 93 1010.1
20260903132204 65 147 2.0 6.0 0.00 0.20 0.08 93 1010.1
20260903124204 64 167 2.0 7.0 0.00 0.20 0.08 95 1010.3
20260903122704 64 160 3.0 7.0 0.00 0.20 0.08 95 1010.3
20260903122204 64 296 1.0 5.0 0.00 0.20 0.08 95 1010.3
20260903120704 64 185 2.0 3.0 0.00 0.20 0.08 95 1010.3
20260903120204 64 171 1.0 8.0 0.00 0.20 0.08 95 1010.2
20260903114703 63 183 3.0 6.0 0.00 0.20 0.08 95 1010.3
20260903114204 63 177 2.0 7.0 0.00 0.20 0.08 95 1010.2
20260903112704 63 184 3.0 6.0 0.00 0.20 0.08 95 1010.2
20260903112204 63 173 3.0 8.0 0.00 0.20 0.08 95 1010.2
20260903110704 63 152 4.0 7.0 0.01 0.20 0.08 95 1010.1
20260903110204 62 154 3.0 7.0 0.01 0.20 0.08 95 1010.1
20260903104704 62 166 3.0 7.0 0.01 0.20 0.08 95 1009.9
20260903104204 62 160 2.0 7.0 0.01 0.20 0.08 95 1010.0
20260903102704 62 169 3.0 8.0 0.01 0.20 0.08 95 1009.9
20260903102204 62 166 3.0 7.0 0.01 0.20 0.08 95 1009.9
20260903100704 62 149 2.0 5.0 0.00 0.20 0.07 95 1009.8
20260903100203 62 172 3.0 5.0 0.00 0.20 0.07 95 1009.7
20260903094703 62 154 2.0 5.0 0.00 0.20 0.07 95 1009.6
20260903094204 62 148 2.0 5.0 0.00 0.20 0.07 95 1009.6
20260903092703 62 167 2.0 8.0 0.00 0.20 0.07 95 1009.4
20260903090704 61 132 2.0 5.0 0.02 0.20 0.07 95 1009.6
20260903090204 61 132 3.0 6.0 0.02 0.20 0.07 95 1009.6
20260903084704 62 155 2.0 3.0 0.02 0.20 0.07 95 1009.8
20260903082704 61 104 2.0 5.0 0.02 0.20 0.07 95 1009.9
20260903082204 61 163 2.0 6.0 0.02 0.19 0.06 94 1009.9
20260903080704 61 122 2.0 5.0 0.00 0.17 0.05 94 1009.7
20260903080204 61 159 2.0 6.0 0.00 0.17 0.05 94 1009.8
20260903074205 61 167 2.0 8.0 0.00 0.17 0.05 94 1009.8
20260903072205 61 165 5.0 9.0 0.00 0.17 0.05 94 1009.9
20260903070705 61 113 2.0 7.0 0.00 0.17 0.05 94 1009.9
20260903070205 61 146 3.0 7.0 0.00 0.17 0.05 94 1009.9
20260903064705 61 101 3.0 7.0 0.00 0.17 0.05 94 1010.0
20260903064205 61 169 4.0 9.0 0.00 0.17 0.05 94 1009.9
20260903062705 61 126 5.0 8.0 0.00 0.17 0.05 94 1009.7
20260903062205 61 142 3.0 10.0 0.00 0.17 0.05 94 1009.7
20260903060706 61 154 4.0 10.0 0.01 0.17 0.05 94 1009.7
20260903054705 61 122 5.0 9.0 0.03 0.17 0.05 93 1010.1
20260903054205 61 115 5.0 10.0 0.03 0.17 0.05 93 1010.2
20260903052705 61 122 4.0 9.0 0.04 0.17 0.05 93 1010.3
20260903052205 61 103 5.0 12.0 0.04 0.17 0.05 94 1010.4
20260903050705 61 108 5.0 13.0 0.03 0.17 0.04 93 1010.7
20260903050205 61 108 5.0 12.0 0.03 0.16 0.03 93 1010.9
20260903044705 62 113 3.0 8.0 0.02 0.14 0.02 93 1011.3
20260903044205 62 133 5.0 10.0 0.02 0.14 0.02 93 1011.3
20260903042705 62 122 5.0 10.0 0.02 0.13 0.01 93 1011.4
20260903042205 62 168 3.0 8.0 0.03 0.13 0.01 93 1011.5
20260903040705 62 161 5.0 8.0 0.05 0.13 0.01 93 1011.6
20260903034705 62 112 5.0 9.0 0.06 0.13 0.13 93 1011.6
20260903034205 62 117 3.0 14.0 0.07 0.13 0.13 93 1011.6
20260903032705 62 111 5.0 12.0 0.06 0.11 0.11 93 1011.9
20260903032205 62 156 5.0 13.0 0.06 0.10 0.10 93 1012.0
20260903030705 63 173 6.0 12.0 0.05 0.09 0.09 92 1012.3
20260903030204 63 103 3.0 13.0 0.05 0.08 0.08 92 1012.3
20260903024705 63 137 4.0 9.0 0.05 0.06 0.06 92 1012.4
20260903024205 63 135 5.0 12.0 0.04 0.06 0.06 91 1012.4
20260903022705 63 133 4.0 12.0 0.04 0.05 0.05 91 1012.4
20260903022205 63 136 4.0 13.0 0.04 0.05 0.05 90 1012.6
20260903020705 64 138 5.0 12.0 0.03 0.04 0.04 89 1012.8
20260903014705 65 130 6.0 10.0 0.01 0.02 0.02 86 1012.8
20260903012205 66 114 4.0 9.0 0.01 0.01 0.01 84 1012.9
20260903010705 66 147 4.0 8.0 0.01 0.01 0.01 84 1013.0
20260903010205 66 147 3.0 9.0 0.01 0.01 0.01 84 1012.9
20260903004704 66 139 3.0 10.0 0.01 0.01 0.01 83 1012.9
20260903004207 67 155 3.0 12.0 0.01 0.01 0.01 82 1012.9